Time,TemperatureF,DewpointF,PressureIn,WindDirection,WindDirectionDegrees,WindSpeedMPH,WindSpeedGustMPH,Humidity,HourlyPrecipIn,Conditions,Clouds,dailyrainin,SoftwareType,DateUTC
2013-05-04 00:00:00,60.3,45.0,29.86,NNW,338,0.0,0.0,57,0.00,,,0.00,WUHU216HW,2013-05-04 07:00:00,
2013-05-04 00:05:00,60.3,45.0,29.86,NNW,338,0.0,0.0,57,0.00,,,0.00,WUHU216HW,2013-05-04 07:05:00,
2013-05-04 01:00:00,58.9,44.6,29.86,North,0,1.1,1.1,59,0.00,,,0.00,WUHU216HW,2013-05-04 08:00:00,
2013-05-04 01:05:00,58.9,44.6,29.86,North,0,1.1,1.1,59,0.00,,,0.00,WUHU216HW,2013-05-04 08:05:00,
2013-05-04 02:00:00,57.4,44.9,29.85,NNE,23,2.2,2.2,63,0.00,,,0.00,WUHU216HW,2013-05-04 09:00:00,
2013-05-04 02:05:00,57.4,44.9,29.85,NNE,23,2.2,2.2,63,0.00,,,0.00,WUHU216HW,2013-05-04 09:05:00,
2013-05-04 03:00:00,56.7,44.7,29.84,North,0,1.1,1.1,64,0.00,,,0.00,WUHU216HW,2013-05-04 10:00:00,
2013-05-04 03:05:00,56.7,44.7,29.84,North,0,1.1,1.1,64,0.00,,,0.00,WUHU216HW,2013-05-04 10:05:00,
2013-05-04 04:00:00,56.0,44.4,29.84,NNE,23,0.0,0.0,65,0.00,,,0.00,WUHU216HW,2013-05-04 11:00:00,
2013-05-04 04:05:00,56.0,44.4,29.84,NNE,23,0.0,0.0,65,0.00,,,0.00,WUHU216HW,2013-05-04 11:05:00,
2013-05-04 05:00:00,54.5,44.2,29.84,North,0,0.0,0.0,68,0.00,,,0.00,WUHU216HW,2013-05-04 12:00:00,
2013-05-04 05:05:00,54.5,44.2,29.84,North,0,0.0,0.0,68,0.00,,,0.00,WUHU216HW,2013-05-04 12:05:00,
2013-05-04 06:00:00,53.3,43.7,29.84,NNW,338,0.0,0.0,70,0.00,,,0.00,WUHU216HW,2013-05-04 13:00:00,
2013-05-04 06:04:00,53.3,43.7,29.84,NNW,338,0.0,0.0,70,0.00,,,0.00,WUHU216HW,2013-05-04 13:04:00,
2013-05-04 06:09:00,53.3,43.7,29.84,NNW,338,0.0,0.0,70,0.00,,,0.00,WUHU216HW,2013-05-04 13:09:00,
2013-05-04 06:59:00,54.4,45.9,29.85,North,0,8.5,8.5,73,0.00,,,0.00,WUHU216HW,2013-05-04 13:59:00,
2013-05-04 07:00:00,54.4,45.9,29.85,North,0,8.5,8.5,73,0.00,,,0.00,WUHU216HW,2013-05-04 14:00:00,
2013-05-04 07:05:00,54.4,45.9,29.85,North,0,8.5,8.5,73,0.00,,,0.00,WUHU216HW,2013-05-04 14:05:00,
2013-05-04 08:00:00,57.6,48.2,29.86,North,0,4.7,4.7,71,0.00,,,0.00,WUHU216HW,2013-05-04 15:00:00,
2013-05-04 08:05:00,57.6,48.2,29.86,North,0,4.7,4.7,71,0.00,,,0.00,WUHU216HW,2013-05-04 15:05:00,
2013-05-04 09:00:00,73.4,53.6,29.86,North,0,3.6,3.6,50,0.00,,,0.00,WUHU216HW,2013-05-04 16:00:00,
2013-05-04 09:02:00,74.2,54.4,29.86,NNE,23,4.5,4.7,50,0.00,,,0.00,WUHU216HW,2013-05-04 16:02:00,
2013-05-04 09:05:00,74.2,54.4,29.86,NNE,23,4.5,4.7,50,0.00,,,0.00,WUHU216HW,2013-05-04 16:05:00,
2013-05-04 09:10:00,74.2,54.4,29.86,NNE,23,4.5,4.7,50,0.00,,,0.00,WUHU216HW,2013-05-04 16:10:00,
2013-05-04 09:59:00,80.1,53.7,29.85,NNE,23,2.0,2.0,40,0.00,,,0.00,WUHU216HW,2013-05-04 16:59:00,
2013-05-04 10:00:00,80.1,53.7,29.85,NNE,23,2.0,2.0,40,0.00,,,0.00,WUHU216HW,2013-05-04 17:00:00,
2013-05-04 10:05:00,80.1,53.7,29.85,NNE,23,2.0,2.0,40,0.00,,,0.00,WUHU216HW,2013-05-04 17:05:00,
2013-05-04 10:59:00,85.5,53.0,29.83,North,0,5.6,5.6,33,0.00,,,0.00,WUHU216HW,2013-05-04 17:59:00,
2013-05-04 11:00:00,85.5,53.0,29.83,North,0,5.6,5.6,33,0.00,,,0.00,WUHU216HW,2013-05-04 18:00:00,
2013-05-04 11:05:00,85.5,53.0,29.83,North,0,5.6,5.6,33,0.00,,,0.00,WUHU216HW,2013-05-04 18:05:00,
2013-05-04 12:00:00,89.3,53.8,29.82,West,270,2.9,2.9,30,0.00,,,0.00,WUHU216HW,2013-05-04 19:00:00,
2013-05-04 12:05:00,89.8,54.4,29.82,North,6,4.8,8.1,30,0.00,,,0.00,WUHU216HW,2013-05-04 19:05:00,
2013-05-04 12:10:00,90.0,54.6,29.81,North,0,5.4,8.1,30,0.00,,,0.00,WUHU216HW,2013-05-04 19:10:00,
2013-05-04 12:15:00,90.0,54.6,29.81,NNE,17,4.1,7.8,30,0.00,,,0.00,WUHU216HW,2013-05-04 19:15:00,
2013-05-04 12:20:00,89.3,52.7,29.81,NW,315,4.9,7.8,29,0.00,,,0.00,WUHU216HW,2013-05-04 19:20:00,
2013-05-04 12:25:00,89.8,54.4,29.81,NW,323,4.1,7.6,30,0.00,,,0.00,WUHU216HW,2013-05-04 19:25:00,
2013-05-04 12:30:00,89.6,53.1,29.81,NNE,21,4.7,7.2,29,0.00,,,0.00,WUHU216HW,2013-05-04 19:30:00,
2013-05-04 12:35:00,90.0,54.6,29.80,NNE,26,4.4,7.2,30,0.00,,,0.00,WUHU216HW,2013-05-04 19:35:00,
2013-05-04 12:40:00,90.5,55.0,29.80,NNW,338,6.3,6.3,30,0.00,,,0.00,WUHU216HW,2013-05-04 19:40:00,
2013-05-04 12:45:00,91.1,55.4,29.80,NE,45,4.3,6.3,30,0.00,,,0.00,WUHU216HW,2013-05-04 19:45:00,
2013-05-04 12:50:00,91.8,55.0,29.80,North,0,4.0,5.1,29,0.00,,,0.00,WUHU216HW,2013-05-04 19:50:00,
2013-05-04 12:55:00,91.6,54.8,29.79,North,0,4.9,6.5,29,0.00,,,0.00,WUHU216HW,2013-05-04 19:55:00,
2013-05-04 13:00:00,90.7,54.1,29.79,NNE,23,6.9,6.9,29,0.00,,,0.00,WUHU216HW,2013-05-04 20:00:00,
2013-05-04 13:04:00,90.0,54.6,29.78,North,0,3.1,3.8,30,0.00,,,0.00,WUHU216HW,2013-05-04 20:04:00,
2013-05-04 13:05:00,90.0,54.6,29.78,North,0,3.1,7.8,30,0.00,,,0.00,WUHU216HW,2013-05-04 20:05:00,
2013-05-04 13:10:00,90.0,54.6,29.78,North,0,3.1,7.8,30,0.00,,,0.00,WUHU216HW,2013-05-04 20:10:00,
2013-05-04 14:00:00,83.5,52.0,29.78,North,0,3.1,3.1,34,0.00,,,0.00,WUHU216HW,2013-05-04 21:00:00,
2013-05-04 14:05:00,83.5,52.0,29.78,North,0,3.1,3.1,34,0.00,,,0.00,WUHU216HW,2013-05-04 21:05:00,
2013-05-04 14:59:00,82.1,49.1,29.75,North,0,5.4,5.4,32,0.00,,,0.00,WUHU216HW,2013-05-04 21:59:00,
2013-05-04 15:00:00,82.1,49.1,29.75,North,0,5.4,5.4,32,0.00,,,0.00,WUHU216HW,2013-05-04 22:00:00,
2013-05-04 15:05:00,82.1,49.1,29.75,North,0,5.4,5.4,32,0.00,,,0.00,WUHU216HW,2013-05-04 22:05:00,
2013-05-04 16:00:00,81.2,42.7,29.72,WNW,293,2.7,2.7,26,0.00,,,0.00,WUHU216HW,2013-05-04 23:00:00,
2013-05-04 16:05:00,81.0,41.5,29.71,NNE,23,7.4,9.4,25,0.00,,,0.00,WUHU216HW,2013-05-04 23:05:00,
2013-05-04 16:10:00,81.0,41.5,29.71,North,356,5.3,9.4,25,0.00,,,0.00,WUHU216HW,2013-05-04 23:10:00,
2013-05-04 16:15:00,80.6,41.2,29.71,North,1,5.4,10.3,25,0.00,,,0.00,WUHU216HW,2013-05-04 23:15:00,
2013-05-04 16:20:00,80.6,40.1,29.71,North,357,8.1,12.1,24,0.00,,,0.00,WUHU216HW,2013-05-04 23:20:00,
2013-05-04 16:25:00,80.5,39.0,29.70,North,8,6.8,12.1,23,0.00,,,0.00,WUHU216HW,2013-05-04 23:25:00,
2013-05-04 16:30:00,80.3,38.8,29.70,NE,45,6.9,13.2,23,0.00,,,0.00,WUHU216HW,2013-05-04 23:30:00,
2013-05-04 16:35:00,80.3,38.8,29.70,North,0,8.9,13.2,23,0.00,,,0.00,WUHU216HW,2013-05-04 23:35:00,
2013-05-04 16:40:00,80.3,37.8,29.70,NW,312,8.0,11.9,22,0.00,,,0.00,WUHU216HW,2013-05-04 23:40:00,
2013-05-04 16:45:00,80.3,38.8,29.70,North,351,7.1,11.9,23,0.00,,,0.00,WUHU216HW,2013-05-04 23:45:00,
2013-05-04 16:50:00,80.3,38.8,29.70,NNE,14,5.2,11.4,23,0.00,,,0.00,WUHU216HW,2013-05-04 23:50:00,
2013-05-04 16:55:00,80.3,38.8,29.70,WNW,293,7.8,10.3,23,0.00,,,0.00,WUHU216HW,2013-05-04 23:55:00,
2013-05-04 17:00:00,80.1,39.7,29.70,North,0,6.7,9.8,24,0.00,,,0.00,WUHU216HW,2013-05-05 00:00:00,
2013-05-04 17:05:00,80.3,39.9,29.69,NNE,24,4.3,9.8,24,0.00,,,0.00,WUHU216HW,2013-05-05 00:05:00,
2013-05-04 17:10:00,80.1,39.7,29.69,NNE,32,5.4,9.8,24,0.00,,,0.00,WUHU216HW,2013-05-05 00:10:00,
2013-05-04 17:15:00,79.9,39.5,29.69,North,0,4.7,9.8,24,0.00,,,0.00,WUHU216HW,2013-05-05 00:15:00,
2013-05-04 17:20:00,80.1,39.7,29.69,North,350,6.6,13.6,24,0.00,,,0.00,WUHU216HW,2013-05-05 00:20:00,
2013-05-04 17:25:00,79.9,39.5,29.69,NNE,13,5.9,13.6,24,0.00,,,0.00,WUHU216HW,2013-05-05 00:25:00,
2013-05-04 17:30:00,79.7,40.4,29.68,NNE,26,5.6,8.3,25,0.00,,,0.00,WUHU216HW,2013-05-05 00:30:00,
2013-05-04 17:35:00,79.6,40.2,29.69,North,0,4.4,8.3,25,0.00,,,0.00,WUHU216HW,2013-05-05 00:35:00,
2013-05-04 17:40:00,79.6,40.2,29.68,NW,315,5.8,9.2,25,0.00,,,0.00,WUHU216HW,2013-05-05 00:40:00,
2013-05-04 17:45:00,79.6,41.3,29.68,North,0,4.7,9.2,26,0.00,,,0.00,WUHU216HW,2013-05-05 00:45:00,
2013-05-04 17:50:00,79.2,41.0,29.68,NNE,25,4.0,8.7,26,0.00,,,0.00,WUHU216HW,2013-05-05 00:50:00,
2013-05-04 17:55:00,79.2,41.0,29.68,NNE,23,4.7,8.7,26,0.00,,,0.00,WUHU216HW,2013-05-05 00:55:00,
2013-05-04 18:00:00,78.8,40.7,29.68,North,8,5.0,8.3,26,0.00,,,0.00,WUHU216HW,2013-05-05 01:00:00,
2013-05-04 18:05:00,78.3,40.2,29.68,North,9,3.9,8.3,26,0.00,,,0.00,WUHU216HW,2013-05-05 01:05:00,
2013-05-04 18:10:00,78.1,42.1,29.68,North,10,3.8,5.6,28,0.00,,,0.00,WUHU216HW,2013-05-05 01:10:00,
2013-05-04 18:15:00,77.9,42.0,29.68,North,349,2.1,5.6,28,0.00,,,0.00,WUHU216HW,2013-05-05 01:15:00,
2013-05-04 18:20:00,77.8,41.9,29.68,North,0,3.4,5.6,28,0.00,,,0.00,WUHU216HW,2013-05-05 01:20:00,
2013-05-04 18:25:00,77.4,41.6,29.68,NW,315,2.9,6.5,28,0.00,,,0.00,WUHU216HW,2013-05-05 01:25:00,
2013-05-04 18:30:00,76.9,42.2,29.67,North,0,5.6,6.5,29,0.00,,,0.00,WUHU216HW,2013-05-05 01:30:00,
2013-05-04 18:32:00,76.7,42.0,29.67,NNE,23,1.8,2.7,29,0.00,,,0.00,WUHU216HW,2013-05-05 01:32:00,
2013-05-04 18:35:00,76.7,42.0,29.67,NNE,23,1.8,6.9,29,0.00,,,0.00,WUHU216HW,2013-05-05 01:35:00,
2013-05-04 18:40:00,76.7,42.0,29.67,NNE,23,1.8,6.9,29,0.00,,,0.00,WUHU216HW,2013-05-05 01:40:00,
2013-05-04 19:00:00,75.2,40.8,29.66,NNE,23,3.6,3.6,29,0.00,,,0.00,WUHU216HW,2013-05-05 02:00:00,
2013-05-04 19:05:00,75.2,40.8,29.66,NNE,23,3.6,3.6,29,0.00,,,0.00,WUHU216HW,2013-05-05 02:05:00,
2013-05-04 20:00:00,72.5,39.4,29.65,North,0,6.3,6.3,30,0.00,,,0.00,WUHU216HW,2013-05-05 03:00:00,
2013-05-04 20:05:00,72.5,39.4,29.65,North,0,6.3,6.3,30,0.00,,,0.00,WUHU216HW,2013-05-05 03:05:00,
2013-05-04 21:00:00,69.3,42.5,29.66,NNE,23,2.9,2.9,38,0.00,,,0.00,WUHU216HW,2013-05-05 04:00:00,
2013-05-04 21:01:00,69.3,42.5,29.66,NNE,23,2.9,2.9,38,0.00,,,0.00,WUHU216HW,2013-05-05 04:01:00,
2013-05-04 21:06:00,69.3,42.5,29.66,NNE,23,2.9,2.9,38,0.00,,,0.00,WUHU216HW,2013-05-05 04:06:00,
2013-05-04 22:00:00,67.3,44.0,29.65,NNW,338,0.9,0.9,43,0.00,,,0.00,WUHU216HW,2013-05-05 05:00:00,
2013-05-04 22:05:00,67.3,44.0,29.65,NNW,338,0.9,0.9,43,0.00,,,0.00,WUHU216HW,2013-05-05 05:05:00,
2013-05-04 23:00:00,66.2,44.8,29.64,North,0,1.1,1.1,46,0.00,,,0.00,WUHU216HW,2013-05-05 06:00:00,
2013-05-04 23:05:00,66.2,44.8,29.64,North,0,1.1,1.1,46,0.00,,,0.00,WUHU216HW,2013-05-05 06:05:00,